Reflectivity
-20 -20 -20 -20 -20 -20 -20 -20 -20 -20 -20 -20 15 -14 -20 9 -20 -20 21 22 -12 -9 -20 -20 -20 -14 -20 -20 -20 -6 -20 -20 -16 -20 -20 26 33 -19 -20 -20 -10 -20 -20
-20 -20 -20 -20 -20 -20 -20 -20 -20 -20 -20 -20 -20 7 18 -17 -6 -14 -20 -20 -1 -5 -20 -18 -19 -20 27 -20 -20 -20 -20 -20 18 -20 -17 -0 -20 -3 -20 -20 -20 -20 -20
-20 -20 -20 -18 -16 -20 -20 -20 -20 -20 -20 -20 -20 -20 -20 -20 -20 -20 -20 -20 -20 -20 -11 -13 -20 -20 -20 -20 -20 -20 -11 -19 -20 26 -20 -17 -12 12 3 -15 -18 -17 -20
-20 -10 -12 -13 -10 -20 -20 7 -20 -20 -20 -20 1 -20 -20 -20 -20 -20 -20 -20 -20 -20 -20 4 -20 -10 -20 -20 -4 -7 -10 -9 13 -19 -17 -20 -20 -6 -14 -20 4 26 -19
-20 -20 17 30 -12 20 -16 -20 26 7 -20 -20 -20 -20 -20 -20 -20 -20 -20 -20 -20 -20 -20 -20 -20 -8 -20 -20 -20 -13 -20 -9 33 -12 -20 -19 -18 -20 -18 -14 13 28 -20
-20 -20 -19 -20 -17 -10 -11 1 -8 -20 -20 36 -20 -19 -19 -20 -20 -20 -20 -20 -20 -20 -20 -20 -20 -20 -20 -19 -20 -20 -17 -19 -12 28 -20 -20 10 -20 -12 -20 -20 21 14
-20 -1 7 -17 7 -9 -7 -14 -19 -20 34 33 37 -13 11 -20 -20 -20 -20 -18 -20 -18 -20 -20 -20 -20 -20 -20 -20 -20 -20 -20 -20 -20 -19 -20 -20 -20 -20 -20 -20 -20 -20
-12 -13 7 -20 -20 -20 -6 -8 8 -16 -4 23 39 23 5 10 -20 -8 -20 -20 -20 -6 11 -20 -20 -20 -20 -20 -20 -20 -20 -20 -20 -20 -20 -20 -20 -20 -20 -20 -20 -20 -20
6 -18 -20 -20 -20 -20 -20 -20 -20 -20 -17 11 20 8 -17 -20 -20 -16 35 -20 -20 -20 -20 -14 -20 9 -20 -20 -20 -20 -20 -20 -20 -20 -20 -20 -20 -20 -20 -20 -20 -16 4
-20 -20 -13 -20 -20 -20 -20 -20 -20 -20 -20 -20 -20 -20 -20 -20 -20 -20 -16 -7 31 -20 27 25 -18 -20 -20 -16 26 -20 -14 -20 22 -20 -20 -20 -20 -20 -20 -20 -20 -20 -20
-20 -20 -20 -20 -20 -20 -20 -15 -20 -7 -14 -20 -20 -20 -20 13 -20 -20 -20 13 -13 -3 27 -3 31 30 -20 27 24 7 9 10 -18 -19 -20 -20 -20 -20 -11 -17 -20 4 8
-20 -20 -20 -20 -20 -20 -14 -20 -20 -20 -11 -20 -20 -14 -20 -20 -0 4 0 -9 29 31 26 27 29 31 24 25 20 -10 5 20 -20 -20 -20 -20 -3 -4 3 6 13 2 -7
-20 -20 -20 -20 -20 -20 -20 -20 -20 -20 10 -9 -8 3 2 -17 -18 8 7 23 21 23 24 23 25 26 34 24 23 20 29 -8 -20 -0 17 17 7 10 27 15 1 -19 -20
-20 -20 -20 -20 -20 -20 -20 -20 -20 -20 -12 9 20 6 -16 12 -19 -20 -20 -16 3 13 21 22 28 21 24 19 16 18 21 25 23 27 28 25 19 27 12 4 -12 -18 -18
-20 -20 -20 -20 -20 -20 -19 -5 -16 -6 -5 12 23 16 9 1 -5 3 4 -14 -1 9 31 27 24 27 22 15 21 17 19 34 34 35 33 36 26 14 8 3 1 -2 3
-20 -20 -20 -20 -20 -20 -20 -20 -1 12 -15 10 22 25 23 20 13 20 17 13 20 22 15 24 32 30 28 40 40 36 28 21 33 36 33 26 12 5 3 6 -2 -5 -13
-20 -20 -20 -20 -20 -20 -20 -20 -20 -3 -19 -3 16 16 32 25 31 16 18 30 22 20 13 21 29 36 40 40 35 33 24 32 33 26 18 11 2 7 8 5 -2 -7 -6
-20 -20 -20 -20 -20 -20 -20 -20 -20 -20 -20 -20 -3 24 37 27 37 29 26 18 22 18 23 31 33 37 37 37 36 30 26 26 19 11 9 6 12 13 10 4 -7 -9 -16
-20 -20 -20 -20 -20 -20 -20 -20 -20 -20 -20 -20 -6 9 4 16 23 20 26 22 23 17 26 27 28 28 28 31 32 27 24 19 13 13 19 13 9 5 -3 -15 -19 -20 -20
-20 -19 2 -20 -20 -20 -20 -20 -20 -20 -18 -3 4 -15 -9 -3 -2 14 19 24 36 34 32 33 29 30 27 32 27 24 19 14 14 11 6 6 1 -14 -13 -20 -20 -20 -20
-20 -20 -20 -20 -20 -20 -20 -20 -20 -20 -20 -1 10 6 -20 -20 -20 -20 -20 -4 16 25 24 29 27 22 16 13 14 13 9 4 2 0 -6 -12 -4 -19 -20 -20 -20 -20 -20
-20 -20 -20 -20 -20 -13 -18 -20 -20 -20 -20 -20 -15 -9 2 -6 -20 -20 -19 -17 -18 -19 -14 -2 3 7 11 10 8 7 9 6 -1 -4 -10 -20 -20 -20 -20 -20 -20 -20 -20
-20 -20 -20 -20 -20 -20 -20 -20 -20 -20 -20 -20 -20 -20 -20 -20 -8 -14 -19 -18 -7 1 5 6 7 8 8 7 2 -3 -7 -13 -18 -20 -20 -20 -20 -20 -20 -20 -20 -20 -20
-20 -20 -20 -20 -20 -20 -20 -20 -20 -20 -20 -20 -20 -20 -20 -20 -20 -20 -20 -20 -20 -20 -20 -19 -19 -19 -19 -20 -20 -20 -20 -20 -20 -20 -20 -20 -20 -20 -20 -20 -20 -20 -20
-20 -20 -20 -20 -20 -20 -20 -20 -20 -20 -20 -20 -20 -20 -20 -20 -20 -20 -20 -20 -20 -20 -20 -20 -20 -20 -20 -20 -20 -20 -10 -20 -20 -20 -20 -20 -20 -20 -20 -20 -20 -20 -20
-20 -20 -20 -20 -20 -20 -20 -20 -20 -20 -20 -20 -20 -20 -20 -20 -20 -20 -20 -20 -20 -20 -20 -20 -20 -20 -20 -20 -20 -20 -20 -20 -20 -20 -20 -20 -20 -20 -20 -20 -20 -20 -20
Wind_Speed
14 13 13 13 13 12 10 8 8 6 5 6 9 10 9 8 7 7 7 6 4 5 6 5 4 5 5 4 6 5 3 2 2 3 1 3 6 3 3 4 9 7 5
12 10 12 11 12 13 12 10 8 9 7 6 6 7 7 6 6 6 7 8 6 6 6 7 6 5 5 3 5 6 4 3 0 3 2 3 1 4 2 2 6 6 6
12 12 12 12 11 11 12 11 10 10 10 10 9 8 8 8 7 6 8 8 9 7 7 7 6 6 5 4 5 8 4 2 2 2 3 1 2 2 3 1 5 6 4
12 11 11 9 11 10 10 11 12 10 11 11 11 10 11 11 10 10 9 9 9 8 7 6 6 7 5 7 5 7 5 4 2 2 2 2 1 2 2 1 2 3 4
6 6 7 8 9 9 7 6 8 10 11 12 11 11 11 12 11 12 11 11 11 10 8 6 7 4 4 4 4 5 4 5 1 2 3 2 1 3 2 1 1 4 5
4 2 4 6 6 7 10 10 8 9 10 10 12 13 13 11 15 18 17 13 12 12 11 8 6 7 4 4 6 9 4 3 4 3 1 1 1 2 2 3 3 2 2
2 3 2 1 3 5 6 7 9 10 8 9 14 14 15 14 15 13 15 13 12 12 10 8 8 7 9 7 6 9 7 8 5 1 2 3 3 2 2 3 5 4 3
4 5 4 5 5 6 5 5 7 6 7 10 16 18 15 13 14 16 13 10 12 10 10 11 10 7 10 11 8 7 6 7 6 4 7 5 5 4 4 4 4 5 3
7 8 7 7 8 8 9 9 9 8 8 10 13 15 15 15 14 16 13 12 13 12 10 9 11 10 12 9 10 9 10 8 10 14 12 10 9 7 3 3 3 3 1
7 7 9 8 7 8 9 9 9 10 12 10 13 13 17 16 16 15 12 10 12 10 9 8 5 11 15 12 8 10 10 9 9 7 5 5 5 4 5 4 3 1 2
8 9 7 7 7 8 9 8 8 9 11 13 15 15 15 14 15 15 17 12 11 9 8 8 3 10 13 7 6 10 10 10 10 8 5 4 3 1 2 1 1 3 5
9 8 7 8 9 8 10 9 10 10 11 12 14 14 13 13 11 11 13 16 11 11 9 6 7 15 8 8 7 16 16 11 7 6 5 4 3 1 2 3 4 5 4
9 8 9 10 11 10 10 9 6 8 8 11 10 11 10 3 3 5 7 5 7 3 5 11 16 18 14 11 11 14 8 7 5 5 3 3 4 4 4 2 3 4 4
9 9 9 11 10 11 9 7 6 7 7 7 8 1 3 3 3 3 3 3 9 9 18 13 9 12 9 11 11 7 6 4 5 5 4 1 3 4 4 3 2 2 3
9 9 10 9 8 8 7 9 7 7 7 5 6 5 3 4 2 6 7 7 7 10 12 10 10 8 10 9 8 11 10 6 5 5 2 3 3 4 3 3 2 2 2
9 8 8 7 7 7 7 8 15 17 22 20 22 14 8 10 14 20 20 20 19 13 13 11 9 10 9 12 10 8 7 8 3 2 3 4 4 4 2 1 1 3 2
9 7 9 8 7 6 7 9 8 11 15 25 22 23 22 20 17 19 23 23 20 18 15 13 12 10 9 7 8 7 5 4 4 4 4 3 2 2 1 1 1 1 3
10 9 6 7 6 6 6 6 7 8 8 9 17 15 19 21 22 19 19 17 16 15 13 12 11 5 8 3 2 2 4 4 3 3 3 3 1 1 2 2 2 3 3
7 6 6 6 3 3 6 6 6 7 7 7 5 8 10 14 14 18 17 11 10 11 7 4 7 4 4 3 4 4 5 5 4 3 3 2 2 2 2 0 3 1 2
9 10 6 6 6 6 4 6 5 5 3 6 5 4 2 1 7 8 8 8 8 7 6 6 6 4 4 4 4 3 4 3 2 2 2 1 1 1 3 0 1 1 3
8 9 9 7 7 7 6 6 5 6 4 4 4 3 6 3 6 6 5 7 7 7 6 4 4 4 3 4 3 2 2 2 2 2 2 2 2 2 1 3 1 1 5
10 9 9 10 7 7 8 8 7 6 6 5 5 3 4 3 5 6 5 5 5 5 5 4 3 4 3 3 2 1 2 4 3 2 1 1 2 4 2 1 1 5 7
8 10 10 7 7 6 4 6 7 7 7 6 6 6 4 3 5 4 4 4 4 4 3 3 4 4 3 2 2 2 1 3 3 3 4 2 2 4 4 3 4 6 7
9 10 8 6 6 6 7 6 5 5 8 8 7 7 8 7 7 7 7 6 6 6 5 4 4 6 5 4 2 6 6 5 4 5 2 3 2 2 1 3 7 5 5
8 8 9 8 8 6 6 7 8 8 7 8 9 8 7 8 5 7 6 7 7 6 6 4 4 6 6 11 10 9 6 8 5 5 5 3 4 2 3 6 5 6 6
8 6 6 6 8 8 7 6 6 8 8 7 7 7 6 6 9 8 8 7 7 7 7 5 8 8 8 11 9 7 5 7 5 6 5 1 4 7 6 5 6 5 5
Wind_Direction
198 196 201 200 203 212 225 222 218 247 210 214 186 199 221 209 198 190 242 262 298 254 274 291 291 303 297 312 321 333 6 38 41 309 13 159 261 89 72 25 144 113 107
191 204 199 200 205 202 212 220 216 216 228 230 249 223 227 245 229 193 211 254 242 233 228 257 260 267 282 292 291 299 314 307 75 289 308 318 302 85 132 82 109 134 103
193 194 208 207 203 215 211 216 210 209 220 226 224 227 225 228 240 211 202 226 253 244 229 230 240 253 262 265 263 277 278 252 223 239 271 340 10 38 44 25 108 132 113
191 190 200 214 219 217 212 204 213 206 209 220 228 221 221 226 226 230 216 221 235 251 257 241 233 225 236 259 248 259 282 260 217 229 266 278 142 99 92 53 79 107 153
189 191 212 218 236 235 254 253 234 219 217 218 219 227 228 220 224 220 217 217 217 223 244 231 232 246 141 240 253 239 235 262 282 268 280 261 45 27 30 350 37 113 59
170 178 180 216 241 249 259 253 265 248 233 222 223 222 220 227 221 218 210 213 206 215 217 218 199 153 158 160 141 92 62 233 239 256 82 11 51 38 36 26 49 80 132
82 44 338 338 278 237 241 263 271 266 271 286 268 247 237 228 233 228 211 215 214 209 205 206 206 200 170 160 135 116 99 89 75 33 358 45 82 55 43 65 47 63 63
106 70 34 9 345 340 318 284 276 258 222 222 254 251 241 240 228 224 217 228 230 222 199 196 196 177 180 166 165 166 138 74 24 39 86 70 64 51 43 79 96 117 107
79 56 32 6 346 333 318 312 306 299 279 243 238 244 242 242 231 230 220 228 230 225 215 195 192 199 176 178 169 162 127 116 71 77 89 91 78 58 50 90 63 84 87
72 54 43 17 353 332 324 320 313 305 291 282 278 256 237 240 231 218 216 227 229 224 223 207 181 204 159 172 194 162 143 143 131 123 120 107 98 85 80 81 113 42 218
69 60 43 17 349 346 330 315 303 293 281 276 278 271 265 241 233 214 203 220 223 221 219 210 158 152 149 183 221 159 145 132 130 135 116 113 111 152 116 94 28 72 73
89 78 52 32 13 0 341 327 317 298 278 268 259 261 252 258 230 209 205 215 226 218 212 172 145 117 117 123 104 121 116 131 147 148 144 132 122 167 265 144 85 77 84
96 78 56 39 26 11 358 338 326 326 297 288 242 244 244 31 38 67 208 231 241 274 178 127 140 115 107 91 109 114 122 132 119 121 104 133 134 134 144 152 138 133 143
110 95 76 57 44 28 15 356 344 342 325 323 336 28 47 37 29 40 87 110 114 105 112 115 116 102 113 123 105 93 70 66 109 101 89 170 111 77 67 51 40 352 149
112 105 91 75 63 41 41 25 6 13 16 348 342 1 44 51 28 83 98 93 103 109 107 105 116 112 102 88 99 83 79 70 56 51 81 88 67 82 72 55 15 21 64
123 109 99 94 75 67 51 49 35 30 28 36 47 44 26 38 93 89 86 86 89 100 94 94 88 76 80 92 70 71 71 83 98 163 100 90 88 72 57 55 40 34 41
108 114 118 113 108 90 68 54 44 25 30 36 34 57 49 50 38 69 85 82 82 87 87 86 75 84 59 58 94 109 127 152 152 89 86 85 100 123 94 112 154 266 71
104 107 134 127 133 114 92 86 74 57 42 36 35 26 38 31 33 42 51 76 80 74 84 96 98 106 109 130 211 206 104 97 97 83 79 69 30 117 69 78 7 86 74
135 148 153 119 103 88 126 110 101 94 83 69 56 45 32 33 43 47 55 72 78 78 74 85 108 139 144 138 85 66 82 72 65 50 27 43 11 64 333 17 90 171 133
139 144 137 147 155 138 157 141 126 131 191 146 120 120 160 198 79 83 87 87 93 102 115 113 110 98 92 101 93 84 99 110 154 201 247 122 63 50 318 31 245 47 219
154 158 162 179 180 164 167 155 169 151 141 137 128 148 33 22 100 129 141 152 148 135 132 107 85 101 117 110 112 121 132 141 103 122 146 223 143 305 242 264 295 332 49
144 162 183 196 189 184 173 168 183 177 143 150 127 139 253 236 112 104 102 91 88 99 114 117 100 81 93 109 91 315 217 150 165 215 238 319 199 223 212 255 42 73 62
166 185 193 197 176 161 161 191 183 159 158 147 148 160 200 128 120 113 101 103 102 101 124 124 128 124 142 161 235 261 232 101 91 40 332 327 42 61 9 357 78 78 89
184 192 169 186 156 195 209 188 160 173 167 156 171 176 195 189 166 169 169 162 171 177 180 190 191 166 180 185 167 56 53 36 5 342 327 314 106 122 281 43 79 78 70
269 198 179 182 163 202 232 202 178 173 188 176 180 193 187 167 177 152 167 163 180 180 184 163 130 137 105 91 88 82 58 43 52 328 340 40 72 74 76 75 62 77 66
257 234 212 198 176 179 234 204 224 178 185 198 190 185 179 186 168 170 181 182 178 168 161 167 145 143 129 90 89 96 74 42 34 354 330 171 63 39 70 84 73 74 63